Home > Weather > Marigot > Past weeks

Past Weather in Marigot, Saint Martin — Yesterday and Last 2 Weeks

Now
82 °F

Passing clouds.


Feels Like: 91 °F
Forecast: 80 / 85 °F
Wind: 14 mph from Southeast

Location: Juliana Airport - Saint Maarten

Current Time: May 28, 2016 at 12:15:01 AM

Latest Report: May 27, 2016 at 11:00 PM


Visibility: N/A

Pressure: 30.01 "Hg

Humidity: 84%

Dew Point: 77 °F

Location of MarigotLocation

Past Weather in Marigot — Graph

°F

Marigot Temperature Yesterday

Maximum temperature yesterday: 86 °F (at 12:00 PM)
Minimum temperature yesterday: 79 °F (at 7:00 AM)
Average temperature yesterday: 83 °F

High & Low Weather Summary for the Past Weeks

 TemperatureHumidityPressure
High86 °F (May 13, 4:00 PM)89% (May 12, 11:00 PM)30.12 "Hg (May 12, 11:00 PM)
Low77 °F (May 19, 4:00 AM)59% (May 13, 4:00 PM)29.86 "Hg (May 26, 4:00 PM)
Average82 °F77%30.04 "Hg
* Reported May 12 11:00 PM — May 27 11:00 PM, Marigot, Weather by CustomWeather, © 2016

Note: Actual official high and low records may vary slightly from our data, if they occured in-between our weather recording intervals... More about our weather records

Advertising

Marigot Weather History for the Previous 24 Hours

Scroll right to see more
 ConditionsComfort  
Time TempWeatherWind HumidityBarometerVisibility
11:00 PM
Fri, May 27
82 °FPassing clouds.14 mph84%30.01 "HgN/A
10:00 PM82 °FSprinkles. Passing clouds.10 mph84%30.01 "HgN/A
9:00 PM82 °FPassing clouds.14 mph79%29.98 "HgN/A
8:00 PM82 °FPassing clouds.10 mph84%29.98 "HgN/A
7:00 PM82 °FPassing clouds.14 mph79%29.95 "HgN/A
6:00 PM82 °FScattered clouds.13 mph79%29.95 "HgN/A
5:00 PM84 °FScattered clouds.10 mph74%29.95 "HgN/A
4:00 PM84 °FPassing clouds.10 mph74%29.95 "HgN/A
3:00 PM86 °FPassing clouds.9 mph70%29.95 "HgN/A
2:00 PM86 °FPassing clouds.10 mph70%29.95 "HgN/A
1:00 PM86 °FPassing clouds.12 mph70%29.98 "HgN/A
12:00 PM86 °FPassing clouds.15 mph70%29.98 "HgN/A
11:00 AM84 °FPassing clouds.16 mph79%29.98 "HgN/A
10:00 AM82 °FPassing clouds.13 mph79%29.98 "HgN/A
9:00 AM82 °FPassing clouds.10 mph84%29.98 "HgN/A
8:00 AM82 °FPassing clouds.12 mph79%29.98 "HgN/A
7:00 AM79 °FPassing clouds.14 mph89%29.98 "HgN/A
6:00 AM81 °FPassing clouds.10 mph84%29.95 "HgN/A
5:00 AM81 °FPassing clouds.10 mph79%29.95 "HgN/A
4:00 AM81 °FPassing clouds.8 mph84%29.95 "HgN/A
3:00 AM81 °FPassing clouds.8 mph84%29.92 "HgN/A
2:00 AM81 °FPassing clouds.9 mph84%29.95 "HgN/A
1:00 AM81 °FPassing clouds.12 mph84%29.95 "HgN/A
12:00 AM81 °FPassing clouds.10 mph84%29.98 "HgN/A
Weather by CustomWeather, © 2016

See weather overviewHow to use our weather pages